Starlink 30175

operational
NORAD ID: 57311 Int'l Des: 2023-096 Owner: SPXS Country: US Constellation: starlink
LEOCIRCULAR

About Starlink 30175

Description loading...

Live Position

Loading 3D Globe...

Upcoming Passes

Altitude History

Altitude vs Time

uPlot chart will show altitude changes over time

Two-Line Element Set

1 57311U 23096X 25353.33335648 .00175352 00000-0 30529-2 0 9994
2 57311 42.9828 261.7208 0032766 192.1208 233.8458 15.48820370 5797
Epoch: Dec 19, 2025 • Age: 11 hours

Current Status

Altitude 441.0 km
Velocity 7.64 km/s
Sub-Earth Point 4.83°N, 103.01°W
Launch Date Jul 10, 2023
Age 2.4 years
Type internet

Technical Details

Classification Payload
Mass 730.00 kg
Dry Mass 700.00 kg
Total Mass 730.00 kg
Length 0.30 m
Diameter 4.10 m
Span 29.00 m
Shape Box + pan
Manufacturer SPXS
Bus Type Starlink V2M
Phase Status In Orbit
Owner/State SPXS/US

Large Constellations

Loading constellations...